Theta_e
316 317 319 320 320 321 322 323 324 325 325 325 325 324 324 323 324 324 324 322 321 319 318 317 316 314 313 312 313 311 310 309 310 308 306 304 303 303 302 301 298 296 296 296 298 298 297 297 296 296 296 295 294 293 292 292 293 294 294 293 292 291 292 290 289 289 291 292 290 290 291 290 289 290 289 289 289 290 289 290 290 290 290 290 290
313 315 317 318 319 320 321 322 322 322 322 323 322 322 323 322 322 320 319 319 319 317 315 314 312 311 310 309 308 308 307 306 305 304 303 302 299 299 298 298 296 293 293 293 294 293 294 294 294 295 295 294 293 292 292 292 293 292 292 292 290 289 289 288 288 287 287 289 289 290 290 290 288 290 288 288 288 289 289 289 290 290 289 290 290
311 313 315 316 317 319 319 319 320 320 320 320 319 319 318 317 316 314 314 312 313 314 312 309 309 309 308 307 306 305 305 303 302 302 302 300 298 297 297 297 295 293 293 293 293 293 294 293 293 293 294 292 292 292 292 292 291 290 289 289 288 287 287 288 287 286 286 286 288 287 288 288 288 288 288 289 288 289 288 288 289 290 290 290 289
309 311 312 313 315 316 316 316 316 316 316 315 315 315 314 312 310 311 310 309 307 306 307 307 307 306 304 303 303 302 300 301 301 301 300 299 297 296 295 294 294 293 293 293 294 294 293 292 292 292 292 291 291 291 291 290 289 288 288 287 287 287 287 287 287 286 285 285 287 286 287 286 287 288 289 288 288 287 288 288 289 289 289 289 289
308 310 311 311 311 312 312 312 313 313 313 310 310 308 308 307 307 308 305 304 304 304 303 304 304 303 302 301 300 300 299 300 300 299 298 298 297 295 293 293 293 293 293 294 292 294 293 292 291 292 292 290 290 289 289 289 288 288 287 287 286 287 287 287 286 286 285 285 286 287 287 287 288 287 288 286 286 287 288 287 287 288 288 288 289
309 309 309 309 308 309 309 309 310 310 308 307 306 305 305 305 304 303 303 302 301 301 301 301 301 301 301 302 300 298 298 297 297 298 296 295 295 293 292 292 292 292 293 293 293 293 292 291 291 291 291 290 289 289 289 288 287 287 286 286 286 287 286 286 286 285 285 285 285 285 287 285 286 286 287 286 285 285 286 286 287 287 286 286 287
307 308 307 306 304 305 306 306 306 305 305 304 303 302 302 302 302 301 300 301 299 298 298 298 298 299 299 299 298 297 297 296 296 295 294 293 292 292 291 291 292 292 292 291 292 292 291 291 291 291 290 290 289 288 288 287 287 286 286 286 286 286 285 286 285 285 285 285 285 286 285 286 286 284 286 287 286 285 283 283 283 286 286 285 284
305 305 304 304 304 304 305 304 303 302 301 300 301 300 300 300 299 299 299 299 298 298 297 296 294 295 295 295 294 295 296 297 297 296 294 293 291 291 291 291 291 290 290 290 290 290 290 290 290 290 290 290 289 288 288 287 287 286 286 286 286 286 286 285 285 285 285 284 284 284 284 284 285 286 286 285 283 283 284 282 281 282 283 284 284
304 303 302 302 302 300 299 299 299 298 299 299 299 298 298 298 298 298 297 297 297 297 296 295 293 292 292 293 293 293 293 293 293 294 293 291 291 291 291 290 290 289 289 288 289 288 288 289 289 289 288 286 286 287 287 287 287 286 286 286 286 286 286 286 285 285 284 284 284 284 284 283 284 283 282 282 281 280 282 282 281 282 282 282 283
302 302 301 299 298 298 297 297 297 298 298 298 297 296 295 295 296 295 295 294 294 294 294 294 294 293 292 291 292 293 292 292 289 291 291 292 292 291 291 290 289 289 288 287 287 287 287 287 287 284 284 284 285 285 285 286 286 288 287 287 286 286 285 284 284 284 284 283 283 282 282 282 282 282 281 281 282 282 281 281 280 281 281 280 281
301 300 298 297 297 297 297 296 296 297 297 296 294 294 294 294 294 293 293 293 292 292 293 293 293 294 293 292 291 291 291 290 288 291 291 291 291 291 290 289 289 288 287 286 286 286 286 286 286 285 285 284 285 285 285 285 285 285 285 286 286 286 284 283 284 283 282 282 282 282 281 281 282 282 281 281 281 281 280 281 280 279 278 276 275
299 298 296 295 295 296 296 295 295 294 294 293 293 293 293 293 293 292 292 292 292 293 292 292 293 292 291 291 291 290 289 288 290 291 291 290 290 290 290 289 289 288 287 286 286 286 285 285 285 286 286 286 286 286 285 285 285 284 284 284 284 284 284 284 283 282 282 281 281 281 281 281 280 281 280 280 280 280 280 280 279 278 277 276 276
299 296 294 294 294 294 294 294 294 293 293 292 292 292 293 292 292 292 292 293 294 293 291 291 291 290 291 290 289 289 289 288 290 290 290 290 290 289 289 289 288 287 286 286 285 285 285 285 285 286 286 284 285 286 286 285 284 284 284 283 283 283 283 283 283 283 283 281 280 280 281 280 279 280 280 280 281 279 279 278 278 278 277 276 276
297 294 294 294 294 294 294 294 293 293 293 292 291 291 291 291 292 292 291 290 294 294 291 289 290 290 290 290 290 290 289 288 289 289 289 289 289 289 289 288 287 287 286 286 286 285 285 285 285 285 285 285 286 286 286 285 285 284 284 284 283 282 282 281 280 280 281 282 281 280 281 281 279 280 281 282 279 278 277 277 277 277 276 276 277
296 294 293 293 294 294 294 294 293 292 292 292 292 291 291 291 289 289 289 290 290 290 290 289 289 289 290 290 290 290 290 289 289 289 289 288 288 288 288 287 286 286 286 286 286 285 286 286 285 285 285 285 286 286 285 285 285 284 283 282 282 283 283 282 282 282 282 282 281 281 281 281 281 281 282 281 280 279 279 278 277 277 277 278 278
295 294 294 293 293 294 294 294 292 291 291 291 290 291 290 291 289 289 289 290 289 288 288 288 288 288 290 290 290 289 289 289 289 288 288 288 287 287 286 286 285 285 285 285 285 285 286 286 285 285 285 285 285 285 285 285 283 281 280 281 281 282 282 280 279 279 280 280 281 281 281 281 281 281 280 280 279 279 278 278 278 277 275 274 274
294 293 293 293 293 293 294 293 292 291 290 289 289 289 289 288 289 289 288 288 287 287 287 287 287 289 288 289 289 289 288 288 288 288 287 287 286 286 285 285 284 284 284 284 284 285 285 285 286 285 285 285 285 285 284 283 280 278 278 278 279 280 280 280 278 277 277 277 278 279 280 280 280 279 279 279 279 277 276 275 274 274 273 272 273
294 293 293 293 293 293 293 293 291 290 289 289 289 289 289 288 287 288 288 287 287 286 286 286 287 287 288 288 289 288 288 287 287 287 287 286 286 285 285 284 283 283 283 284 284 284 284 283 284 285 285 285 285 284 284 281 278 278 277 277 276 277 278 278 277 277 276 276 277 277 278 277 277 277 277 277 277 276 274 272 273 273 272 272 271
295 293 294 293 293 293 292 291 291 289 289 289 289 288 287 287 287 287 289 288 287 286 286 286 286 287 287 288 286 287 288 286 287 287 286 286 285 286 284 284 282 282 282 282 283 283 283 282 283 284 285 285 285 284 283 280 279 278 277 275 275 275 277 275 275 274 274 274 275 276 276 276 276 276 276 275 275 275 275 274 274 273 271 271 272
296 295 294 293 293 292 292 289 289 288 288 288 288 288 287 286 286 287 287 287 286 286 286 286 285 286 286 286 286 288 287 287 287 286 286 285 285 285 285 283 282 282 282 281 281 282 282 283 283 283 284 285 285 284 282 280 278 278 277 276 275 276 276 273 273 273 272 273 273 274 274 274 275 275 275 275 274 274 274 274 274 273 271 271 271
295 295 294 292 292 290 290 289 288 288 288 288 287 287 287 286 286 286 285 285 286 285 285 285 285 285 285 285 286 286 286 286 285 286 285 285 285 284 284 284 283 282 281 281 281 281 281 282 283 283 284 284 284 283 281 280 279 277 277 276 277 277 274 272 272 273 271 271 271 272 273 274 274 274 274 273 273 273 273 273 273 273 272 271 270
293 292 292 291 290 289 288 288 288 288 287 287 286 286 286 286 285 285 285 284 284 284 284 284 284 284 284 284 285 285 285 285 285 285 285 285 285 284 284 284 283 282 280 280 280 281 281 282 282 283 284 284 283 282 281 280 279 277 277 278 277 276 273 272 271 272 272 272 272 272 272 272 273 273 272 272 272 272 271 271 272 272 272 273 272
292 291 290 289 288 288 288 287 287 287 286 286 285 285 284 284 283 284 284 283 283 283 283 283 283 283 283 284 284 284 284 285 284 284 285 285 285 284 284 283 283 282 281 280 280 280 281 282 282 283 283 283 283 282 281 279 278 277 278 278 276 275 273 272 272 271 272 271 271 271 271 271 271 271 271 270 270 270 270 270 270 270 271 271 272
290 289 288 288 287 287 287 286 286 286 285 285 285 284 284 284 283 283 283 283 282 282 282 282 282 282 282 282 283 284 284 284 284 284 284 285 285 284 284 283 283 282 282 281 280 280 280 280 281 283 283 282 282 281 280 278 277 278 277 276 275 273 271 271 271 270 270 270 270 270 270 270 270 270 270 269 269 268 268 268 268 269 269 270 271
288 287 287 287 286 286 286 286 286 286 285 285 285 285 283 283 281 282 282 283 283 282 282 282 282 282 282 281 282 283 283 283 284 284 283 284 284 284 283 283 283 282 280 280 280 279 280 281 282 283 282 282 281 280 279 277 278 276 275 274 272 271 271 271 270 269 269 269 269 269 269 269 270 269 269 268 267 267 268 268 268 269 269 269 270
286 286 286 286 286 285 285 285 285 285 285 286 286 286 285 283 282 281 282 282 282 282 282 281 282 281 281 281 281 282 282 282 283 283 283 283 283 283 283 283 282 281 279 279 279 280 281 281 282 282 281 280 279 276 275 275 275 274 273 271 270 270 270 270 269 269 269 269 268 268 269 269 269 268 267 267 266 267 267 266 267 267 268 268 268
286 286 286 286 286 285 285 286 285 285 285 286 287 286 286 284 283 281 281 282 282 282 281 281 281 281 281 281 281 281 281 281 282 282 283 283 283 283 282 282 281 279 278 278 279 279 280 280 280 281 280 278 275 275 274 274 272 270 269 269 269 269 269 269 269 269 269 268 268 268 268 268 268 267 266 266 266 266 267 265 266 266 267 267 267
286 285 285 285 284 284 285 281 283 284 284 285 285 285 283 283 282 281 282 282 282 281 281 281 281 281 281 280 280 279 279 280 281 281 282 282 282 282 281 281 279 278 277 277 278 278 279 280 279 276 274 274 273 272 271 270 269 268 268 268 268 268 268 268 267 267 267 268 267 267 267 267 266 266 266 266 266 266 266 265 265 265 266 266 266
284 284 284 284 282 283 285 283 283 281 282 284 282 283 282 282 282 282 283 284 283 283 281 281 281 282 282 281 279 278 279 279 280 283 282 283 282 281 280 279 278 277 277 278 274 274 276 274 271 271 271 270 269 268 268 268 267 267 265 266 266 266 266 266 266 266 266 266 266 266 266 266 265 265 265 265 265 265 265 264 264 264 264 266 266
283 282 282 283 282 281 281 280 281 282 282 281 282 282 279 282 283 283 282 282 282 282 283 282 282 282 282 282 281 280 279 281 282 283 283 283 283 282 281 280 280 277 278 279 275 273 272 271 271 270 270 269 269 268 268 267 266 265 265 266 266 266 266 266 266 265 265 265 266 265 265 265 265 265 264 264 264 265 265 264 263 264 264 264 265
282 281 281 281 280 280 280 280 280 281 281 281 280 280 280 280 280 280 281 282 281 281 281 281 281 282 282 281 281 281 280 281 282 283 283 283 283 282 281 281 280 279 279 275 272 271 271 270 270 270 270 270 269 269 268 268 267 266 266 266 265 265 265 265 265 265 264 264 265 265 265 264 264 264 263 263 263 263 263 264 264 263 263 264 264
282 281 280 280 279 279 280 280 279 280 280 280 280 280 279 279 279 280 280 280 281 281 281 281 282 282 282 282 281 281 280 280 282 282 283 283 283 283 282 281 280 280 280 277 271 271 270 269 269 269 269 269 269 269 269 268 268 267 266 265 265 265 264 264 264 264 264 264 264 264 264 264 264 263 263 262 262 262 263 262 263 262 262 263 264
281 280 279 279 278 278 278 279 278 279 278 278 278 279 279 279 278 278 279 280 280 281 281 282 282 282 282 282 282 281 280 280 282 283 282 282 283 282 282 281 280 280 279 274 271 271 270 269 269 268 269 268 270 269 269 268 268 267 267 266 265 265 264 264 263 262 263 264 264 264 264 263 263 263 262 262 261 261 261 261 262 262 262 262 263
280 279 279 278 278 278 278 278 278 278 278 278 278 278 279 279 279 279 278 277 278 279 281 282 282 282 282 282 282 281 281 281 282 282 282 282 282 282 281 280 281 281 278 272 271 270 270 269 270 269 269 269 269 268 268 267 267 266 266 266 266 265 263 261 261 262 262 263 264 263 262 262 262 262 262 262 262 261 261 261 261 261 261 262 262
278 275 273 275 278 278 278 278 278 278 278 277 277 278 278 278 279 279 279 278 277 277 278 279 281 282 281 282 282 281 281 281 282 282 282 282 282 282 281 278 277 277 276 274 271 270 269 269 269 270 269 268 268 268 268 267 266 265 265 265 264 264 262 261 261 262 262 262 262 262 262 261 261 262 261 261 261 261 261 261 261 261 260 260 261
276 277 276 275 277 278 278 278 278 278 278 278 278 278 278 278 278 279 279 279 279 279 279 280 280 281 281 281 282 282 281 281 282 282 282 282 282 282 277 275 275 275 274 274 272 271 270 269 269 268 268 268 268 267 267 266 266 265 265 264 263 263 262 261 261 261 261 262 261 261 261 261 261 260 261 260 259 258 260 260 260 260 260 260 260
276 277 276 276 277 277 277 277 277 277 278 277 277 277 277 278 278 278 278 278 278 279 279 279 279 279 280 280 280 281 282 281 281 282 282 282 282 280 277 276 275 275 274 273 272 270 269 269 268 268 268 267 266 266 266 266 266 264 264 264 263 262 262 262 262 261 260 261 261 260 260 260 260 260 260 259 260 260 260 259 259 260 260 259 259
275 276 276 275 275 276 276 276 276 275 276 276 277 277 277 277 277 277 278 278 278 278 278 279 278 278 277 278 280 279 280 281 281 281 282 281 280 279 278 276 275 275 274 274 273 272 271 269 268 268 268 267 266 266 266 266 265 264 263 262 262 262 262 261 261 259 259 261 260 260 259 259 259 259 259 259 259 260 260 260 260 259 259 259 259
273 273 273 273 275 276 276 275 275 275 275 276 276 276 276 276 276 277 277 278 277 278 278 278 278 277 278 278 277 278 279 278 278 278 279 279 279 279 278 277 276 275 275 274 272 271 271 269 268 267 266 266 266 266 265 264 264 263 263 262 261 261 261 261 260 260 259 260 260 260 259 259 260 260 260 259 259 259 259 259 258 258 258 258 259
273 274 273 273 274 274 274 274 275 275 275 275 275 276 275 275 276 276 276 277 277 277 278 278 277 277 278 277 276 277 277 277 277 278 278 278 278 278 278 276 275 275 274 273 272 270 268 269 269 266 265 265 265 265 264 264 263 262 262 262 261 260 260 260 260 260 260 260 260 259 259 259 259 259 259 259 259 259 258 258 258 259 258 258 258
274 273 271 273 273 274 273 273 274 274 274 275 275 275 275 275 275 275 276 276 276 277 277 277 278 278 278 277 278 278 277 276 277 277 277 277 277 277 277 276 275 274 273 273 271 269 268 268 267 265 265 264 264 264 263 263 263 262 261 260 260 260 260 260 260 259 259 259 259 259 259 258 258 258 258 258 259 259 259 259 259 259 259 258 258
272 272 272 272 272 273 273 272 273 272 273 273 274 274 274 275 275 275 275 275 275 276 276 276 277 277 277 278 278 278 277 276 276 277 277 277 277 277 276 276 275 274 273 272 271 269 268 268 268 265 264 264 264 263 262 262 262 261 260 260 260 259 259 259 259 258 258 258 258 258 258 258 258 258 258 259 258 259 259 259 259 258 258 258 258
271 272 272 271 272 272 272 272 273 272 272 272 273 272 273 274 274 274 274 274 275 275 275 275 276 276 275 277 277 277 276 276 273 276 276 276 276 276 276 275 275 274 273 272 271 271 269 267 267 266 265 265 264 262 262 261 262 261 260 260 259 259 259 259 259 258 258 257 257 257 257 257 257 257 257 258 258 258 258 257 258 258 258 258 258
270 271 271 271 271 271 271 272 272 272 272 271 271 272 272 273 273 273 274 274 274 274 274 275 275 275 274 274 275 275 275 275 275 275 275 275 275 275 275 274 273 272 272 271 271 271 269 267 266 267 265 264 264 263 262 262 262 261 261 260 259 259 259 259 258 258 257 257 257 256 256 256 257 257 257 257 257 256 257 257 257 257 257 258 257
270 270 270 270 270 270 270 271 271 271 271 271 271 272 272 272 272 273 273 273 273 273 273 273 273 273 273 272 273 273 274 274 274 274 274 274 274 274 275 273 272 270 269 269 270 270 269 268 266 265 263 263 263 262 262 261 261 261 261 261 260 259 259 259 259 259 258 257 257 256 256 256 256 257 256 256 256 256 256 256 256 257 257 257 257
269 269 269 269 269 269 269 270 269 270 270 270 271 271 271 271 272 272 272 272 272 273 273 273 273 272 272 271 271 271 272 273 273 274 274 274 274 274 273 272 271 270 269 268 269 269 268 268 266 265 264 262 262 261 261 261 261 261 261 261 260 260 260 260 260 258 258 257 257 257 257 256 256 256 256 256 256 256 256 256 256 257 256 256 256
267 268 268 269 269 269 269 269 269 269 270 270 270 270 271 271 271 271 271 271 271 271 271 272 272 272 272 272 271 270 271 271 272 272 273 273 274 274 274 272 271 270 269 269 268 268 267 266 265 265 264 263 261 260 260 260 260 260 260 260 260 260 260 259 259 258 257 257 257 258 257 256 256 256 255 255 256 256 255 255 256 255 256 257 256
267 267 268 268 268 268 268 269 268 268 269 269 269 270 270 270 270 270 270 270 270 270 271 271 271 271 271 271 271 270 270 271 271 271 272 272 273 273 272 271 270 269 268 268 267 267 266 265 264 264 264 262 260 259 258 259 259 259 259 259 259 259 259 258 257 257 257 256 257 257 256 256 256 256 255 255 255 256 255 255 256 256 256 255 256
266 266 266 267 267 267 267 268 268 268 268 268 268 269 269 269 269 269 269 270 270 270 270 270 270 270 271 271 271 270 270 269 270 270 270 271 271 271 271 270 269 269 268 267 268 267 265 264 263 263 264 263 260 258 258 258 258 258 258 258 258 258 257 257 256 256 256 256 256 256 256 255 255 255 255 255 254 255 255 255 256 256 256 256 256
265 265 266 266 266 266 267 267 267 267 267 268 268 268 268 268 268 268 268 269 269 269 269 269 269 270 270 270 270 270 269 269 269 269 269 270 270 270 270 270 270 269 268 267 267 266 265 264 262 262 262 262 260 259 258 258 257 257 257 257 257 257 257 257 256 256 255 256 255 255 255 255 255 254 254 254 254 254 254 254 255 255 255 255 255
264 264 264 264 264 264 264 264 264 265 265 265 266 266 266 266 267 267 267 267 267 268 268 269 269 269 269 269 269 269 269 269 269 269 269 269 269 270 270 270 269 268 268 267 267 266 265 263 262 261 261 261 260 259 259 258 258 257 257 257 258 257 257 256 256 255 255 255 255 255 254 254 254 253 253 253 253 253 253 254 254 254 255 255 255
Wind_Speed
11 12 11 13 12 14 13 13 13 11 9 10 12 12 10 10 11 11 8 8 8 8 8 8 8 8 8 8 9 9 7 6 7 8 8 8 6 7 8 9 10 8 8 8 7 7 8 8 8 7 6 6 6 5 5 4 3 4 4 4 4 3 1 1 3 3 1 2 2 3 3 3 4 2 5 5 5 5 7 7 7 7 8 8 9
11 11 11 11 13 13 12 11 10 8 10 10 9 9 9 9 8 7 9 8 8 8 8 7 7 8 8 7 6 7 8 9 7 8 10 9 8 5 8 11 12 9 8 7 6 4 7 8 7 7 6 7 7 6 5 5 4 5 4 3 4 3 1 1 2 2 2 2 3 3 3 3 4 3 5 6 6 6 7 7 6 7 8 9 9
9 9 9 9 12 11 10 9 9 9 10 9 9 8 7 7 7 8 7 6 5 7 7 7 8 8 7 8 8 7 8 9 8 8 9 11 11 8 9 10 11 10 9 8 7 7 8 8 8 7 6 8 7 6 5 6 5 5 5 4 4 4 2 1 1 1 3 3 2 4 4 4 4 6 6 6 7 7 7 7 7 6 7 9 9
8 9 9 9 9 8 8 7 8 8 9 7 8 7 6 6 6 6 7 6 7 4 6 7 8 8 8 8 9 8 7 8 9 9 11 12 11 11 9 8 8 8 9 8 8 8 9 9 8 8 8 8 6 6 5 5 5 5 5 4 4 3 2 2 1 0 1 3 3 4 5 6 5 6 5 6 7 7 6 6 7 8 8 8 10
7 8 9 8 6 7 7 7 8 8 8 6 7 6 6 6 6 7 7 6 6 7 6 6 8 8 9 10 10 10 9 9 10 8 7 9 11 11 9 8 8 8 7 8 8 8 8 9 10 8 8 8 7 6 5 6 5 5 5 4 3 3 2 2 1 1 2 3 4 4 4 4 5 5 5 8 7 6 6 7 7 6 8 10 10
7 8 8 8 7 7 7 7 7 7 7 7 7 7 7 7 7 5 7 9 7 7 8 7 8 9 9 10 11 10 9 9 9 10 10 9 8 8 8 8 8 8 8 7 7 7 8 9 9 8 7 8 7 7 7 7 5 5 5 4 3 3 3 2 1 1 2 3 4 5 4 5 6 5 6 8 9 9 7 6 6 5 8 11 11
7 7 6 7 7 7 7 7 7 7 7 7 6 6 6 7 8 8 6 8 9 8 7 8 6 8 8 9 9 10 10 9 9 9 10 9 9 10 9 9 9 7 7 7 7 7 8 8 7 7 7 7 8 8 8 7 5 6 5 4 3 3 3 2 1 2 2 3 3 3 4 4 4 6 6 7 7 7 9 11 7 4 6 9 13
6 6 6 7 7 8 7 6 7 7 6 6 7 7 7 7 7 7 8 8 8 10 11 9 7 6 7 8 7 8 9 9 11 10 10 11 9 8 9 10 10 9 9 8 7 7 7 7 6 6 6 7 7 8 7 7 6 6 5 4 4 4 3 2 2 1 1 2 2 3 4 4 4 5 6 7 7 6 7 9 12 13 12 10 9
6 6 6 6 5 6 6 6 6 7 8 8 8 8 7 7 8 7 7 7 7 8 9 10 10 8 6 8 9 7 8 8 8 11 12 9 8 10 10 11 11 11 10 9 8 8 7 6 6 5 6 7 8 7 6 6 6 6 5 5 4 3 2 2 1 0 1 1 2 2 3 4 4 6 8 8 9 9 10 10 10 10 11 12 11
7 7 7 6 5 6 7 7 7 8 9 9 8 8 8 7 8 8 7 7 8 8 9 9 10 11 10 8 7 7 6 6 9 13 14 13 11 9 9 10 11 10 11 10 9 8 7 6 7 10 10 10 9 9 9 5 3 4 5 5 4 3 2 1 1 0 0 1 1 3 3 4 5 6 6 7 8 9 10 11 11 11 12 12 11
6 7 7 6 7 7 7 8 7 8 8 8 7 8 8 8 8 8 8 9 9 9 10 10 9 8 10 10 10 7 7 6 14 15 15 17 13 11 11 10 10 10 10 10 10 9 8 9 9 10 10 10 9 10 10 9 7 6 5 3 2 2 2 2 1 1 0 1 1 2 3 4 4 5 5 6 7 9 10 10 10 11 10 12 13
7 7 7 7 7 8 8 8 7 7 8 8 8 7 8 9 9 9 9 10 8 8 9 9 10 10 8 9 8 6 6 11 17 16 18 16 13 10 10 10 9 9 9 10 9 9 10 9 8 7 7 8 9 9 9 9 9 8 7 6 5 5 3 1 1 1 0 1 2 2 3 4 5 5 5 7 8 9 9 9 9 9 10 11 11
8 8 7 8 7 7 7 8 8 8 8 8 7 8 9 9 9 10 10 8 10 9 9 10 10 8 9 10 7 7 8 13 15 18 17 12 13 12 9 9 10 9 10 10 10 10 9 9 8 6 6 7 8 8 8 8 8 8 8 9 7 5 5 6 6 2 0 1 1 3 2 3 4 4 5 7 8 9 9 8 8 9 9 10 10
8 8 7 7 8 7 8 8 9 8 8 8 8 8 9 10 9 8 8 8 10 10 11 9 9 8 7 8 8 8 9 13 14 16 14 14 12 10 9 9 9 9 10 10 9 10 10 10 9 8 9 9 7 8 8 7 7 7 6 5 4 5 6 5 4 4 1 1 1 2 2 2 3 5 6 7 7 7 8 9 9 10 10 10 12
7 8 8 8 8 8 8 8 9 8 9 9 9 9 9 9 7 7 8 10 10 11 12 9 7 7 8 8 8 8 8 15 15 15 15 14 13 10 9 8 8 8 8 8 9 9 9 8 9 9 10 8 7 8 8 8 7 6 5 4 4 4 3 3 2 1 0 1 1 2 2 2 3 5 5 5 6 6 7 9 10 10 11 12 9
8 8 9 8 9 9 9 8 9 7 9 9 7 8 7 10 9 7 7 6 5 6 4 4 8 6 8 9 9 9 10 16 15 16 17 16 14 9 9 9 9 8 8 8 7 8 7 8 8 9 9 8 9 11 8 7 6 5 5 5 5 4 4 5 4 4 2 2 1 2 2 3 4 4 4 5 5 6 7 7 6 6 9 8 7
9 9 9 10 9 8 9 10 10 9 8 8 8 8 8 7 6 7 8 8 9 5 4 4 4 8 8 9 10 9 11 14 15 17 18 18 12 8 9 8 8 8 8 7 7 7 7 8 8 8 8 8 11 12 10 8 6 6 5 5 3 4 4 3 3 3 3 2 1 1 2 2 3 4 4 6 6 6 5 5 4 7 8 9 9
9 9 9 9 10 9 10 10 10 9 9 9 9 7 6 6 7 7 8 10 8 4 4 4 4 5 7 9 9 11 11 14 15 17 18 16 11 10 8 7 8 8 8 7 6 6 6 6 8 8 8 9 14 13 13 9 7 6 6 5 5 4 3 2 1 1 1 1 2 2 2 3 3 4 4 6 8 6 3 4 6 6 7 6 9
10 10 9 8 8 9 9 10 10 10 10 9 9 9 8 8 6 6 6 7 7 6 5 6 5 4 3 4 8 9 10 13 15 17 17 13 10 8 8 7 9 8 8 8 6 6 7 5 5 6 8 11 16 14 13 9 7 6 6 6 5 5 3 2 2 1 1 0 0 1 1 2 2 2 2 5 6 6 4 4 5 5 6 7 8
8 8 7 8 8 8 8 9 9 10 10 9 8 8 7 8 8 8 7 5 5 5 5 5 6 6 5 5 6 7 11 11 13 17 16 15 11 8 7 9 9 10 9 8 8 7 7 7 7 9 11 14 15 15 13 10 7 6 6 5 6 6 3 2 1 1 1 1 1 1 1 2 2 2 3 3 4 4 4 5 4 5 6 7 7
8 8 8 9 9 8 7 8 10 8 7 9 8 7 7 8 9 8 8 4 5 6 6 6 5 6 5 5 5 6 7 11 12 17 17 16 13 10 8 7 8 9 9 8 7 8 8 8 8 12 14 15 15 15 13 12 9 6 6 5 5 6 7 4 3 3 2 1 0 0 0 1 1 1 1 2 3 3 4 5 5 5 6 7 8
8 9 9 10 8 8 8 7 8 9 7 8 9 8 6 8 9 9 5 6 8 7 7 7 7 6 5 4 5 5 6 9 11 15 17 17 16 12 6 7 8 10 8 7 7 7 8 8 8 13 17 16 16 15 14 13 12 6 6 8 9 11 6 4 3 3 2 2 1 0 0 1 1 1 1 1 2 4 4 4 5 6 6 6 7
10 10 9 8 9 9 8 9 8 7 8 9 10 10 9 9 8 7 9 8 9 9 7 7 7 7 6 6 5 5 6 7 11 12 16 17 17 13 6 6 11 6 9 9 9 8 8 8 8 16 18 17 16 16 14 14 10 6 11 11 10 10 7 3 3 2 2 2 1 1 1 1 1 1 1 2 3 4 4 4 6 7 7 8 9
8 8 9 9 8 8 8 8 7 8 9 9 9 11 11 10 10 7 6 8 9 8 8 7 7 8 8 7 7 7 6 6 9 11 12 15 14 13 10 9 12 5 4 6 7 7 8 8 10 19 18 17 16 16 14 12 7 12 12 12 11 8 3 4 2 2 2 2 2 2 2 1 1 1 1 2 3 5 6 6 7 7 8 8 9
8 9 8 8 8 7 7 7 8 7 9 10 11 11 11 12 8 6 7 8 8 9 9 9 9 9 8 8 8 8 7 7 7 10 11 13 14 13 12 12 12 9 6 4 5 6 8 13 16 19 17 16 16 15 12 10 12 13 12 12 10 3 4 3 3 3 3 3 2 2 2 2 1 1 2 3 5 6 5 5 5 7 8 9 9
9 9 8 7 8 8 9 8 8 8 9 9 9 10 11 12 10 7 8 7 8 8 9 9 8 8 8 7 7 8 8 7 7 9 11 12 12 13 12 12 12 9 5 6 9 12 14 15 18 18 16 15 12 8 7 8 12 12 12 10 4 3 4 4 4 4 3 3 3 3 2 1 1 1 3 4 3 2 2 4 4 5 5 6 6
8 8 8 7 7 8 9 8 8 8 9 7 8 7 10 9 9 8 8 8 9 9 8 9 9 9 9 8 7 7 7 7 8 8 10 11 10 11 10 10 12 10 7 7 10 9 12 12 11 14 12 13 10 10 8 10 9 7 6 4 3 3 3 3 4 3 3 3 3 3 1 1 1 2 2 1 2 2 1 3 4 4 4 5 6
8 8 8 7 7 8 7 8 9 9 8 8 8 7 5 7 8 10 12 11 11 10 10 10 11 11 11 9 8 7 7 8 9 11 12 11 10 10 10 10 10 8 9 9 8 9 10 11 12 9 8 8 8 6 6 6 5 4 4 4 4 3 4 5 4 2 2 2 2 2 1 2 2 2 1 1 2 1 1 3 3 4 4 4 4
7 7 7 7 6 6 8 7 6 6 7 7 4 4 7 7 7 4 6 6 6 8 9 9 7 7 7 10 11 9 6 9 13 13 12 16 14 13 12 11 10 8 10 13 8 7 7 7 5 7 6 8 6 6 5 5 5 4 4 5 5 5 5 5 5 4 4 3 4 3 2 2 2 2 2 2 2 1 1 2 3 3 4 4 4
9 10 9 8 7 6 5 6 6 7 7 6 8 8 1 1 1 4 7 6 8 7 4 3 2 3 5 5 6 8 11 8 11 18 16 16 14 9 7 10 11 10 16 20 10 9 8 7 8 9 9 7 8 8 8 7 6 6 6 7 6 5 5 5 4 4 4 4 3 3 3 2 2 2 2 2 2 1 1 3 2 3 3 3 3
6 6 6 5 6 7 6 6 6 6 6 5 5 5 4 2 1 2 1 3 3 3 4 4 2 7 5 6 6 9 7 6 15 19 17 17 17 15 15 16 16 19 22 15 8 8 8 8 9 8 8 8 8 8 8 7 7 7 7 6 5 6 6 5 5 5 5 5 4 4 3 3 3 2 2 2 2 3 2 2 2 2 2 3 3
6 6 5 4 7 7 4 5 5 5 5 5 5 6 5 5 4 3 5 4 6 7 7 8 9 10 13 10 7 6 4 5 15 19 19 19 19 18 18 18 19 22 24 16 9 10 7 6 8 7 8 8 9 6 7 7 6 6 6 6 6 6 6 6 6 6 5 5 5 4 4 3 3 3 2 2 2 2 2 2 2 2 2 2 3
4 4 5 5 5 5 4 5 5 5 6 6 6 6 7 7 7 6 4 6 8 10 10 12 13 13 14 13 14 9 7 7 14 18 19 20 21 20 19 20 21 23 22 12 8 7 8 8 8 7 8 8 7 7 6 6 5 6 6 6 6 6 6 5 7 5 4 5 5 5 4 4 3 3 3 2 2 2 2 2 2 2 2 2 3
4 4 5 6 6 5 5 5 5 5 5 5 6 6 6 6 6 6 6 5 5 7 11 14 14 14 15 16 15 14 13 13 16 19 20 22 21 20 19 14 18 24 19 9 10 11 11 11 10 9 7 6 5 5 5 5 5 4 4 4 3 4 5 6 5 5 4 5 5 5 4 4 4 3 3 2 2 2 2 2 2 1 1 2 2
3 4 7 6 4 4 4 4 5 5 5 5 6 6 6 6 5 6 8 8 8 9 9 9 13 15 11 12 15 17 16 16 18 19 21 22 22 20 18 11 12 13 13 9 9 9 9 10 9 7 7 7 7 6 6 5 5 5 5 5 4 4 5 5 5 5 5 5 5 5 5 5 4 3 3 2 2 2 2 2 2 1 1 2 2
4 4 4 5 3 3 4 4 4 5 4 5 5 5 4 4 5 6 5 5 5 6 5 5 4 10 14 11 14 17 18 18 17 19 21 22 22 24 13 9 8 10 11 11 11 11 8 7 7 7 6 6 5 5 6 6 6 5 4 4 5 5 5 5 5 5 5 4 4 5 5 5 5 4 3 3 4 4 3 2 2 2 2 2 2
4 4 4 4 4 3 3 3 3 4 5 3 3 4 4 4 4 5 4 6 7 6 6 3 4 4 8 7 11 14 17 15 16 17 20 22 26 20 12 12 11 12 12 13 12 10 11 10 6 6 6 7 6 6 6 5 5 4 4 4 4 4 5 5 5 4 5 4 5 5 5 5 5 4 4 4 3 4 3 3 3 3 3 3 4
4 4 3 4 4 3 3 3 4 4 3 4 4 4 5 5 6 6 6 6 6 6 6 4 5 6 8 7 9 6 9 13 15 15 18 21 18 15 13 11 12 13 13 11 12 11 11 6 5 7 7 6 7 6 6 6 6 6 6 5 5 4 4 4 4 4 4 3 4 4 5 4 5 4 4 4 4 3 3 4 3 2 2 3 3
3 4 6 7 5 4 4 4 4 4 4 4 4 4 4 5 5 6 6 6 6 7 6 5 5 7 6 4 6 6 8 10 12 13 14 15 15 14 12 12 13 13 12 10 11 11 10 10 10 9 5 6 6 7 6 6 5 6 6 6 5 5 6 5 5 5 5 5 4 4 4 4 4 4 5 4 4 4 4 4 4 3 3 2 2
4 4 5 7 3 4 3 3 4 4 3 5 5 5 5 5 6 6 5 6 7 6 6 7 6 6 5 7 8 8 10 11 11 10 10 12 14 15 15 12 12 15 14 12 11 11 11 12 11 8 6 5 5 6 6 6 6 6 6 6 7 7 7 7 6 6 6 5 4 4 4 5 4 4 4 4 4 4 4 4 4 4 3 3 3
3 3 5 5 3 3 3 3 3 4 4 4 4 4 5 5 5 4 6 6 6 6 6 6 6 3 5 9 13 13 10 9 10 10 10 11 9 10 10 9 5 6 5 8 7 6 9 7 6 7 7 6 6 6 6 7 6 6 7 6 6 6 6 6 6 6 5 5 5 5 4 5 5 5 5 5 5 4 4 4 4 4 4 4 3
3 3 2 2 2 2 2 2 2 2 3 2 3 4 3 4 5 5 5 5 4 5 6 5 4 3 5 13 14 17 10 8 5 8 10 10 10 10 9 8 9 9 8 9 10 9 9 9 9 8 9 11 12 10 7 7 7 7 6 7 7 6 7 7 7 7 7 6 5 5 5 5 5 5 5 4 4 4 4 4 3 3 3 3 4
3 3 2 2 2 2 2 2 2 2 2 3 3 3 3 4 4 4 5 5 6 5 6 5 4 3 4 9 12 16 10 8 9 11 8 7 6 8 10 10 8 8 9 9 7 8 7 6 8 10 13 14 12 10 11 10 9 8 8 8 8 8 7 6 5 6 6 6 6 6 5 5 5 5 5 5 5 4 4 4 4 3 4 4 4
3 2 2 2 2 2 1 1 2 2 2 3 3 2 3 3 4 5 5 5 6 6 6 6 5 4 4 4 8 9 9 7 8 9 11 9 10 9 7 5 7 8 9 9 10 9 8 9 10 10 9 8 12 12 11 8 8 9 9 8 7 7 6 6 7 7 7 7 6 6 6 6 6 6 5 5 5 5 4 4 4 4 4 4 4
3 2 2 1 1 1 1 1 1 2 2 2 3 4 3 4 5 5 6 6 5 6 6 5 4 5 4 5 6 8 7 8 10 10 11 11 10 10 9 8 7 8 7 9 9 10 11 10 9 9 10 8 9 12 12 7 7 7 6 8 9 10 10 9 8 7 7 7 6 6 6 7 7 6 5 5 5 5 4 5 4 4 5 5 5
2 2 1 1 1 1 1 1 1 2 2 3 3 4 4 4 5 6 6 6 6 6 6 6 5 6 5 5 6 8 8 7 8 11 9 10 9 10 7 9 11 11 11 10 10 12 12 13 10 9 9 11 13 11 9 10 9 8 8 8 9 7 5 4 5 6 6 7 7 6 7 6 7 6 6 5 5 5 5 4 4 5 5 5 5
2 1 1 1 1 1 1 1 2 2 3 3 4 4 4 4 5 5 5 6 6 5 7 7 6 6 6 6 6 7 7 8 7 8 7 9 11 10 9 8 9 8 9 10 10 12 12 12 12 11 10 14 14 13 11 6 6 5 5 6 6 5 4 5 6 6 6 7 7 6 7 7 6 6 7 7 5 5 5 5 6 7 7 5 4
2 1 1 1 1 1 1 2 2 3 3 4 4 4 4 4 5 5 4 5 6 6 7 7 7 7 6 6 6 6 7 7 8 8 8 8 7 8 8 9 9 10 9 9 10 9 8 9 10 10 9 7 10 9 6 6 6 6 6 6 5 6 8 8 5 6 5 6 6 6 6 6 6 6 6 8 7 6 6 6 6 6 6 6 5
2 2 1 1 1 1 1 2 2 2 3 3 4 5 4 5 5 5 5 6 6 6 6 6 6 7 7 7 5 5 6 5 7 8 8 9 7 7 6 7 9 10 10 11 11 9 9 9 10 10 11 11 10 9 9 8 8 7 7 6 7 10 11 10 6 6 7 6 5 5 5 5 6 6 6 7 7 5 5 5 5 5 6 5 5
2 1 1 1 1 1 1 1 2 2 3 3 4 5 5 5 6 6 6 6 6 7 7 7 8 7 8 8 6 5 5 6 7 7 8 8 8 6 7 10 11 9 10 10 10 9 9 10 10 10 11 12 8 7 8 8 8 7 7 7 13 15 14 14 11 11 9 6 7 6 6 6 7 8 8 7 7 7 7 6 7 7 6 5 5
1 1 0 0 0 1 1 1 2 2 2 2 3 4 5 5 5 5 6 6 7 7 8 8 8 8 9 9 7 7 7 7 8 8 8 9 8 8 9 9 10 10 10 10 10 9 10 10 10 10 12 11 11 8 7 8 7 7 11 15 16 16 16 15 11 14 14 9 6 6 7 10 9 8 8 7 6 7 7 7 6 7 6 6 5
Wind_Direction
206 212 207 210 207 207 207 205 206 203 196 200 206 201 194 194 201 201 191 193 182 181 182 178 173 171 169 169 169 160 154 149 144 140 137 135 132 138 137 133 121 99 124 126 133 133 136 136 139 140 147 132 121 119 124 127 116 104 102 112 109 87 90 198 233 260 203 147 285 295 306 310 304 305 317 320 320 319 312 310 307 313 309 313 315
205 206 206 206 206 206 203 197 196 186 194 198 197 193 196 195 188 171 186 185 177 176 174 167 164 164 161 153 145 150 142 128 137 136 137 131 123 124 134 130 124 121 125 123 130 118 128 130 130 134 127 111 113 121 131 133 125 114 107 111 107 107 92 215 212 235 278 296 292 305 302 317 305 331 330 328 328 323 319 314 312 311 312 312 315
201 202 200 199 201 201 191 189 184 186 188 191 193 189 188 183 174 173 175 164 168 168 164 160 160 154 150 150 138 137 146 139 139 139 141 139 138 141 146 139 139 140 141 144 142 140 134 129 131 125 116 112 114 115 120 117 110 108 111 108 115 120 129 147 197 217 269 293 293 314 327 326 323 327 330 328 323 320 317 322 321 315 311 313 311
193 196 197 196 193 180 176 173 176 182 187 183 183 177 170 167 162 164 159 153 153 141 145 148 146 143 137 135 138 134 137 137 137 147 148 144 141 144 143 137 136 142 139 142 146 147 138 129 129 126 122 121 124 125 119 116 118 117 115 116 121 129 135 134 150 269 275 292 322 323 321 323 326 325 329 329 329 326 323 320 321 318 316 318 315
185 189 194 188 169 171 163 162 176 180 178 170 169 157 156 152 153 150 140 138 134 131 122 132 136 141 145 147 141 144 148 144 141 141 140 142 143 143 140 138 140 132 134 138 140 137 136 130 132 132 134 128 132 130 125 123 121 122 122 129 133 139 151 140 165 251 266 294 304 307 309 311 316 319 340 338 331 329 331 335 329 320 323 323 319
177 172 176 166 148 168 164 168 171 169 160 157 156 153 145 141 136 132 144 131 128 132 138 141 147 146 149 151 148 146 144 141 138 141 139 135 131 124 126 122 119 122 124 127 131 128 129 128 132 139 145 143 136 130 129 128 124 124 130 135 139 145 134 148 183 227 264 281 296 311 326 330 332 337 350 343 335 334 342 345 330 332 329 325 324
161 161 163 142 144 145 155 163 158 155 153 145 137 136 137 131 132 137 139 140 138 136 135 133 140 143 144 142 144 143 142 137 133 138 139 133 130 134 127 118 122 116 117 120 119 118 119 124 131 138 138 135 136 138 138 134 131 133 136 137 145 148 155 168 187 232 254 291 296 305 317 327 329 332 345 339 335 339 344 339 334 328 328 329 322
158 159 154 141 163 165 162 151 144 136 129 129 123 119 114 129 129 129 136 139 142 146 144 141 130 126 133 132 127 131 134 144 147 145 144 143 134 130 131 130 125 120 120 119 117 114 113 117 124 125 129 137 138 138 143 140 141 141 150 154 154 161 164 172 191 228 264 296 316 328 328 322 331 342 335 341 344 353 6 345 329 329 330 327 316
158 153 134 150 155 123 103 119 121 125 129 124 124 133 132 132 132 135 137 134 137 138 135 135 130 122 121 128 131 134 136 145 150 151 146 137 131 137 136 134 131 130 126 121 114 111 112 111 118 128 114 109 114 129 135 142 150 149 153 160 163 161 160 172 174 225 282 310 319 332 325 335 348 348 348 355 358 342 334 334 320 320 321 318 318
156 156 139 121 130 134 118 126 127 129 132 134 136 133 133 135 134 132 132 132 129 132 132 134 139 141 138 134 141 145 146 152 160 158 152 146 143 139 134 132 134 136 133 128 121 118 116 117 110 109 117 122 122 128 137 144 134 137 149 155 163 153 155 160 178 213 301 316 341 339 337 341 348 355 344 344 340 332 330 333 327 326 324 316 307
152 136 132 148 143 141 139 132 137 137 134 128 130 135 135 136 131 128 130 136 137 141 143 141 145 148 145 148 152 150 155 153 154 156 149 147 141 143 140 137 136 136 136 135 134 132 130 127 129 131 130 133 136 140 139 137 128 115 106 88 75 146 162 164 170 161 197 317 328 332 331 325 342 349 342 341 336 333 327 326 323 324 329 330 324
145 142 139 144 145 147 142 140 138 137 136 138 139 140 137 136 135 137 138 140 145 144 145 150 148 142 138 142 141 140 137 152 157 154 150 151 151 140 137 137 139 137 138 136 136 140 140 140 143 148 155 152 147 145 142 137 136 131 128 124 106 68 50 79 156 152 177 272 329 329 326 326 336 337 341 339 330 324 322 320 318 322 322 321 314
156 152 156 153 155 151 151 148 142 145 144 139 139 143 143 138 140 146 151 147 149 151 143 140 141 135 138 143 137 139 143 157 156 155 152 143 144 137 134 136 136 139 141 142 145 146 145 145 149 154 149 146 156 155 149 144 139 133 119 102 87 79 90 74 49 33 246 275 284 299 319 332 318 331 337 324 321 314 318 315 315 314 312 308 304
160 161 159 161 157 158 155 150 146 149 143 142 142 147 145 150 151 149 138 145 158 152 153 141 142 143 141 136 140 146 147 160 151 151 147 141 135 128 130 130 130 134 141 146 148 149 151 150 149 150 154 166 166 161 159 153 151 151 158 159 139 124 113 100 88 64 18 292 257 264 318 331 305 317 317 321 320 318 315 309 311 308 307 298 299
174 167 162 160 160 159 158 154 149 144 148 148 149 153 151 145 146 150 158 158 157 159 154 149 146 141 136 140 142 146 150 154 154 151 149 141 126 118 125 123 127 132 139 145 146 148 151 151 152 152 158 168 169 167 160 160 158 157 153 148 148 151 143 126 72 51 72 298 265 273 291 297 305 311 318 328 320 310 310 301 304 303 300 297 284
175 169 169 172 171 168 159 158 149 146 152 152 155 157 159 158 156 154 153 152 146 135 129 114 147 141 143 145 142 144 150 157 153 152 149 143 131 127 133 133 134 137 139 143 143 146 150 153 151 153 159 163 165 170 162 155 146 135 144 155 151 152 128 90 67 38 15 332 305 294 299 301 306 332 342 332 326 324 311 303 294 311 312 304 309
186 184 180 175 172 168 162 160 156 155 159 157 161 162 158 159 159 157 152 155 153 150 136 141 144 143 146 150 148 144 153 159 154 152 149 147 141 135 136 132 134 137 140 139 143 148 154 157 153 154 158 160 163 164 155 145 130 139 150 158 160 167 157 128 92 78 34 13 353 315 291 311 0 358 353 352 349 337 317 318 330 333 320 320 316
190 184 185 176 173 170 163 160 158 160 164 168 165 163 162 157 160 161 157 153 155 144 135 130 141 153 153 158 156 147 154 158 155 155 154 156 150 140 142 137 134 136 133 141 145 151 151 144 157 156 157 154 160 162 155 145 142 152 157 156 156 175 165 143 175 125 66 39 64 44 38 48 6 13 19 359 352 346 353 327 317 319 313 311 307
186 185 180 172 171 166 161 160 163 165 169 170 166 163 165 163 155 161 161 155 145 137 137 138 141 152 154 139 139 141 146 156 158 159 161 159 151 143 144 137 139 144 147 148 150 148 151 166 178 163 157 155 162 163 158 155 153 163 160 152 162 182 183 157 185 132 21 12 84 38 356 31 15 3 347 342 348 355 341 312 308 315 307 303 305
171 164 162 164 167 169 169 165 167 169 170 163 163 162 151 150 161 162 154 149 135 140 142 143 142 150 143 142 153 150 150 158 165 165 166 166 165 154 150 146 150 153 157 155 154 158 161 167 177 178 163 162 167 166 166 163 157 161 162 167 171 182 153 156 192 153 144 107 35 9 4 354 356 333 325 339 349 348 327 313 310 304 295 293 296
162 165 161 164 169 173 173 175 168 171 166 160 153 152 160 160 158 158 150 138 135 136 136 139 137 136 148 156 156 155 161 160 165 170 173 175 172 164 164 162 152 154 154 154 161 161 165 172 171 177 172 170 168 169 167 166 159 160 178 178 185 154 148 160 165 153 135 132 159 330 343 329 309 293 308 336 339 327 319 315 303 296 289 288 294
159 161 167 173 172 174 174 172 169 164 156 151 154 157 159 159 162 156 142 140 137 131 140 148 152 151 153 158 161 162 163 167 165 175 178 181 182 184 168 169 157 147 143 152 159 167 171 169 171 175 175 172 170 168 168 166 163 163 177 168 152 150 155 151 162 170 164 164 144 151 228 272 279 277 311 320 312 315 311 309 304 297 289 282 281
163 166 168 171 175 174 174 168 166 160 158 159 155 156 159 156 155 142 151 147 141 143 149 150 149 151 155 168 170 172 170 175 177 178 184 184 186 189 176 144 160 156 152 161 169 163 163 165 166 173 174 173 172 170 168 165 162 169 161 156 155 154 148 161 152 161 154 144 155 160 197 233 262 282 315 312 307 312 308 308 303 296 290 284 281
159 163 169 171 169 172 168 164 159 158 158 157 157 158 164 164 160 159 151 149 154 156 167 163 161 162 167 168 172 175 175 177 184 187 185 186 186 187 181 169 169 169 148 146 151 155 158 163 167 172 173 173 173 172 169 166 169 160 155 154 150 151 153 148 161 151 147 152 167 183 196 219 241 268 291 305 304 307 299 291 286 285 282 287 288
157 167 168 168 166 162 159 164 164 164 163 162 164 171 169 167 155 164 154 165 165 169 171 172 175 171 171 172 172 172 175 178 179 187 185 185 185 183 182 176 177 158 148 131 138 145 148 154 164 169 171 172 172 167 165 168 161 154 154 152 152 160 165 163 156 161 166 176 178 184 200 205 228 254 292 292 289 280 279 285 282 277 272 272 273
162 166 164 163 164 155 162 168 171 172 172 179 177 174 173 178 174 156 173 177 175 173 169 175 177 172 176 173 172 169 172 171 177 179 186 186 187 185 178 175 171 162 116 135 133 142 151 157 163 167 168 170 166 159 158 164 159 154 152 156 165 162 165 161 164 171 176 173 179 189 194 201 223 255 268 259 262 271 292 300 301 294 294 291 290
163 161 160 164 163 169 174 178 178 181 186 186 187 183 183 178 176 171 178 180 182 180 171 174 177 179 180 176 168 165 173 178 178 175 185 185 185 180 176 177 165 140 137 148 153 154 158 161 165 167 168 158 141 150 150 152 150 153 160 174 170 161 168 176 175 172 168 174 180 187 189 212 259 250 242 249 259 272 303 291 287 289 290 291 283
163 163 163 163 171 178 186 168 171 183 187 189 189 183 182 178 179 180 184 185 178 183 179 182 185 182 180 170 163 168 179 189 191 185 184 179 176 173 177 172 173 169 162 162 160 157 157 160 156 147 139 146 157 165 168 177 176 171 171 168 165 160 153 142 142 161 171 172 175 176 195 209 241 249 259 255 254 266 292 278 284 290 289 289 283
162 163 164 169 170 178 187 176 182 169 178 190 194 179 177 184 194 217 213 189 188 177 184 194 194 185 170 165 164 174 185 200 209 193 182 179 172 168 172 176 171 170 164 147 129 125 136 145 138 153 159 168 168 178 179 181 187 180 171 173 163 167 169 177 176 176 173 174 183 181 188 207 236 250 260 263 254 260 288 288 286 285 290 277 273
164 170 172 178 168 167 167 163 176 178 183 182 190 199 333 339 319 200 200 212 229 244 291 234 190 175 190 203 187 179 192 218 177 177 179 180 181 172 155 153 158 147 158 157 145 146 160 161 172 177 176 178 184 189 186 188 181 181 190 187 180 178 178 176 174 168 173 181 175 180 192 202 219 226 249 267 280 271 275 291 293 298 291 299 299
156 159 164 177 167 166 168 167 172 179 176 170 170 170 175 180 136 32 294 156 148 153 210 240 240 220 214 208 225 257 351 83 161 181 179 182 180 172 164 165 158 160 161 146 152 169 166 177 183 183 189 187 191 192 184 184 187 184 183 183 187 182 177 174 174 166 173 175 181 183 190 202 208 216 231 261 277 291 295 289 279 291 294 305 307
164 169 170 157 164 176 167 160 155 167 169 173 177 178 180 178 186 178 170 167 183 201 205 196 201 206 213 218 208 221 237 178 171 184 190 190 188 183 181 171 169 171 173 162 158 186 186 178 181 191 188 193 201 189 184 188 188 186 174 178 189 186 180 182 169 169 172 171 174 182 190 198 201 206 220 236 264 272 278 286 290 298 304 303 296
148 140 149 152 155 165 163 165 170 178 171 174 182 185 190 188 189 186 169 185 200 205 208 209 207 207 206 206 207 206 198 187 189 189 191 194 192 190 184 180 174 175 168 176 193 180 185 190 194 191 194 204 198 190 192 193 190 190 190 186 181 180 184 160 155 171 176 174 169 180 183 191 198 201 211 216 235 256 270 272 278 286 283 291 293
132 152 159 158 157 166 174 174 177 182 183 182 188 187 198 196 196 172 168 180 202 229 229 220 212 205 208 203 200 195 193 191 193 191 191 194 194 190 185 183 179 184 184 186 186 200 195 199 205 201 198 201 197 180 192 197 199 197 195 200 173 156 148 143 167 179 175 178 180 178 179 190 192 196 205 206 219 235 250 253 261 270 288 291 293
117 122 141 156 163 166 171 174 178 181 181 185 191 194 199 200 193 188 196 193 197 201 205 211 211 206 205 204 201 198 195 199 197 195 194 195 191 187 177 175 185 196 202 209 207 206 201 202 203 196 190 197 199 186 198 187 195 199 194 182 171 161 156 174 183 179 178 179 177 180 182 184 192 202 198 203 212 224 235 244 250 253 270 285 294
131 140 147 158 166 165 176 181 184 187 186 193 196 202 204 199 200 210 212 216 217 214 218 200 181 200 204 204 202 202 202 201 201 198 197 193 189 181 178 195 194 200 200 198 200 204 199 199 191 191 183 196 184 190 197 190 200 196 189 171 176 174 176 180 178 174 184 184 183 175 174 186 187 190 198 208 213 222 232 241 252 253 260 267 289
152 152 154 166 167 174 172 171 180 187 192 190 190 202 207 209 212 218 218 218 221 227 227 172 143 190 207 216 209 209 206 200 200 199 200 197 194 190 199 190 194 193 202 203 203 201 205 208 184 186 187 188 191 187 188 191 189 188 183 186 176 175 189 184 175 166 177 189 187 183 182 184 180 188 193 204 214 209 218 224 238 243 243 266 284
159 157 157 140 148 154 159 174 180 167 188 194 200 200 204 208 212 217 223 225 220 221 222 201 177 200 203 214 180 188 201 201 197 202 203 202 200 203 207 209 207 204 207 202 200 198 209 201 181 192 187 179 185 180 181 186 183 184 183 179 181 191 173 168 173 171 191 198 195 185 184 185 184 188 202 211 212 208 214 218 227 238 252 245 243
143 127 132 148 160 166 169 170 166 180 192 193 200 198 205 207 211 216 221 226 222 221 223 210 198 209 207 150 165 174 170 193 195 203 199 200 202 203 206 205 208 210 209 201 196 197 203 207 211 210 190 191 184 185 180 181 173 180 176 170 175 172 181 191 185 182 187 201 202 196 190 187 185 191 198 205 215 213 214 214 220 230 239 250 252
150 152 152 151 158 168 171 172 173 181 191 190 200 200 208 212 217 219 219 222 225 222 223 220 214 206 176 164 179 176 197 204 204 201 196 200 203 205 207 206 206 209 206 201 196 193 192 206 205 186 192 196 189 189 179 175 178 176 171 178 178 182 185 185 183 179 188 190 194 199 194 189 189 187 200 213 213 209 209 212 219 219 228 243 259
139 137 140 162 155 154 166 174 185 190 192 197 203 201 210 208 211 213 219 222 226 229 227 230 230 189 166 191 191 192 207 215 216 215 214 214 215 214 217 216 209 220 221 212 204 200 202 187 168 176 192 197 195 185 178 183 180 173 185 181 183 184 178 183 179 180 177 181 193 197 199 191 188 190 203 211 208 211 217 216 216 220 227 233 243
118 122 138 140 149 172 170 186 195 197 210 210 215 220 222 220 222 226 226 228 227 227 231 226 217 196 180 190 192 198 208 225 211 217 218 218 220 224 225 223 218 215 210 211 209 208 212 211 214 194 185 195 198 189 166 183 181 182 177 181 188 185 185 191 187 178 173 181 187 193 196 191 192 201 206 202 204 209 210 212 212 214 225 232 234
116 125 122 134 149 179 191 195 188 195 213 220 231 234 242 245 246 239 240 241 241 238 241 236 224 186 187 196 195 200 215 221 223 225 225 220 221 224 226 227 220 213 213 210 206 212 204 207 218 221 215 206 193 175 181 181 177 176 180 182 187 190 192 182 170 172 173 177 187 186 185 191 195 200 204 205 205 204 207 209 213 218 222 230 234
129 123 132 135 151 160 185 203 195 211 217 226 236 241 233 236 241 244 246 245 237 240 242 245 240 216 196 195 198 202 218 213 212 219 226 225 226 223 215 206 211 211 211 210 212 212 204 210 217 222 223 213 204 181 183 176 171 178 183 179 178 181 184 186 188 179 170 174 179 176 189 193 198 196 200 201 197 201 207 207 209 214 221 225 230
113 119 124 140 148 170 184 198 214 224 237 237 239 237 236 235 242 244 243 245 245 240 240 237 226 219 204 201 201 209 217 218 221 223 225 225 228 231 230 223 211 204 202 207 205 207 213 213 211 213 210 203 185 182 185 175 185 186 173 166 175 188 196 193 191 169 157 157 167 175 184 187 192 197 196 197 198 198 206 204 203 212 220 228 228
101 104 119 132 149 173 193 200 210 222 229 234 238 240 239 236 238 240 242 247 248 249 249 245 235 230 224 202 204 218 223 221 224 227 230 231 227 220 197 199 207 208 204 202 202 207 212 216 210 207 200 197 186 186 184 182 183 187 187 191 189 185 171 159 140 147 162 166 174 177 180 180 188 194 191 187 194 203 205 206 206 212 217 223 231
102 115 118 145 160 186 198 202 208 216 224 231 237 242 242 244 243 243 240 242 247 252 252 249 244 237 228 217 215 217 222 227 227 229 228 232 234 235 232 229 228 226 221 211 205 210 210 211 215 212 206 202 195 193 180 178 176 172 175 183 191 179 167 161 167 168 163 167 164 172 180 178 180 181 194 200 200 202 207 210 208 217 223 226 225
113 115 133 136 168 187 211 215 227 231 239 239 242 244 248 251 251 250 255 251 243 243 245 249 249 248 243 236 226 227 229 233 236 240 239 239 236 238 234 230 225 228 226 226 225 222 219 222 225 227 225 205 179 182 172 170 178 178 184 185 185 187 179 168 158 161 160 158 168 177 172 175 177 180 186 193 199 190 199 209 212 222 219 216 223
114 126 133 166 178 205 213 223 231 233 240 247 249 251 253 253 254 256 255 256 256 256 253 254 253 253 253 250 235 226 227 232 236 239 240 244 242 237 229 230 235 232 226 230 231 223 216 218 218 219 220 213 193 182 181 173 175 175 177 180 176 176 173 166 164 170 152 151 161 169 173 179 182 183 187 198 200 195 207 213 211 217 219 212 208
115 115 140 152 193 227 233 251 257 260 266 263 264 267 269 267 268 268 267 269 269 268 268 266 264 264 264 265 255 243 236 235 237 238 242 242 241 233 237 240 238 232 229 226 227 222 220 220 217 216 217 214 192 178 182 171 176 175 176 178 185 186 182 180 175 162 163 175 167 178 177 185 195 199 203 199 193 194 202 208 213 215 212 208 213
112 118 145 187 212 245 247 249 247 257 255 260 266 268 267 268 269 267 268 265 264 266 266 266 265 264 263 263 261 252 241 243 244 245 245 246 244 241 245 243 239 235 233 232 229 226 221 216 216 216 212 207 199 189 180 174 169 175 184 187 186 183 184 182 185 184 178 169 167 172 183 196 198 193 200 194 188 190 203 203 208 210 214 210 209